DateTime,F1_A11,F1_S11,BsB_S11,BsG_S11,BsR_S11,BbsB_S11,BbsG_S11,BbsR_S11,BaB_A11,BaG_A11,BaR_A11,T_S11,U_S11,P_S11,T1_A11
2016-04-26T00:00:00Z,0000380,20000600,,,,,,,,,,26.2,01.0,0680.7,34.7
2016-04-26T00:01:00Z,0000380,20000600,,,,,,,,,,26.2,01.0,0680.7,34.7
2016-04-26T00:02:00Z,0000380,20000600,,,,,,,,,,26.2,01.0,0680.7,34.7
2016-04-26T00:03:00Z,0000380,60000600,,,,,,,,,,26.2,01.0,0680.7,34.7
2016-04-26T00:04:00Z,0000380,41000600,0000.16,0000.76,-000.24,0000.23,0000.06,-000.05,-000.06,0000.11,0000.11,26.3,00.8,0681.5,34.7
2016-04-26T00:05:00Z,0000380,01000600,0000.18,0000.02,0000.08,0000.40,-000.14,-000.03,-000.01,-000.04,0000.13,26.3,00.8,0681.5,34.7
2016-04-26T00:06:00Z,0000380,01000600,-000.21,-000.21,0000.56,0000.05,-000.20,0000.06,0000.03,-000.06,-000.57,26.3,00.8,0681.6,34.7
2016-04-26T00:07:00Z,0000380,01000600,-000.19,0000.27,-000.06,-000.42,0000.14,0000.16,0000.13,-000.13,-000.12,26.3,00.7,0681.5,34.7
2016-04-26T00:08:00Z,0000380,01000600,-000.00,-000.00,-000.03,0000.28,0000.40,0000.12,0000.09,0000.20,0000.49,26.4,00.7,0681.5,34.7
2016-04-26T00:09:00Z,0000380,01000600,-000.36,-000.10,-000.02,0000.28,0000.08,-000.02,-000.20,-000.16,-000.21,26.4,00.7,0681.5,34.7
2016-04-26T00:10:00Z,0000380,01000600,0000.02,0000.30,-000.43,0000.25,-000.20,0000.03,0000.09,0000.14,0000.25,26.5,00.7,0681.5,34.7
2016-04-26T00:11:00Z,0000380,01000600,-000.41,-000.37,-000.24,0000.05,-000.19,-000.23,0000.07,0000.11,0000.16,26.5,00.7,0681.4,34.7
2016-04-26T00:12:00Z,0000380,01000600,-000.14,0000.37,0000.00,0000.45,-000.29,-000.05,0000.13,0000.00,-000.03,26.5,00.7,0681.4,34.7
2016-04-26T00:13:00Z,0000380,01000600,0001.10,0000.14,0000.00,0000.43,0000.19,-000.34,0000.21,0000.25,0000.00,26.5,00.6,0681.4,34.7
2016-04-26T00:14:00Z,0000380,01000600,-000.03,0000.01,0000.06,0000.16,-000.05,-000.39,0000.25,0000.05,0000.14,26.5,00.6,0681.4,34.7
2016-04-26T00:15:00Z,0000380,01000600,0000.00,0000.01,0000.00,0000.33,-000.05,0000.00,-000.09,0000.07,-000.08,26.5,00.6,0681.4,34.7
2016-04-26T00:16:00Z,0000380,01000600,0000.70,0000.14,0000.00,0000.05,-000.22,-000.06,-000.09,0000.08,-000.29,26.5,00.6,0681.4,34.7
2016-04-26T00:17:00Z,0000380,01000600,0000.63,0000.42,0000.16,0000.17,0000.34,-000.05,0000.07,-000.26,0000.08,26.5,00.7,0681.4,34.7
2016-04-26T00:18:00Z,0000380,01000600,0000.09,-000.33,-000.28,-000.09,-000.39,-000.39,0000.16,0000.09,0000.03,26.5,00.6,0681.3,34.7
2016-04-26T00:19:00Z,0000380,01000600,-000.05,-000.42,-000.31,0000.40,-000.14,-000.20,-000.01,0000.00,0000.04,26.4,00.7,0681.3,34.7
2016-04-26T00:20:00Z,0000380,01000600,0000.57,0000.55,0000.03,0000.03,-000.09,-000.22,-000.12,0000.13,-000.08,26.5,00.7,0681.3,34.7
2016-04-26T00:21:00Z,0000380,01000600,-000.30,-000.33,-000.07,0000.19,-000.08,-000.12,0000.29,-000.01,0000.31,26.4,00.6,0681.2,34.7
2016-04-26T00:22:00Z,0000380,01000600,0000.28,0000.83,-000.04,0000.84,-000.12,-000.16,-000.10,-000.02,-000.17,26.4,00.6,0681.2,34.7
2016-04-26T00:23:00Z,0000380,01000600,-000.07,0000.42,0000.21,0000.36,-000.08,0000.03,0000.09,0000.07,0000.19,26.3,00.6,0681.2,34.7
2016-04-26T00:24:00Z,0000380,01000600,0000.19,-000.03,0000.03,-000.22,0000.00,0000.12,-000.02,-000.06,-000.30,26.3,00.6,0681.1,34.7
2016-04-26T00:25:00Z,0000380,01000600,-000.47,-000.27,-000.04,0000.25,0000.05,-000.02,-000.05,0000.11,0000.05,26.3,00.6,0681.1,34.7
2016-04-26T00:26:00Z,0000380,01000600,-000.18,-000.32,0000.05,0000.43,0000.15,-000.23,0000.05,-000.09,0000.17,26.3,00.6,0681.0,34.7
2016-04-26T00:27:00Z,0000380,01000600,0000.39,-000.11,-000.34,0000.03,-000.11,0000.03,-000.17,0000.09,-000.16,26.3,00.5,0681.0,34.7
2016-04-26T00:28:00Z,0000380,01000600,-000.62,-000.11,0000.05,0000.28,-000.17,-000.11,0000.27,-000.05,0000.24,26.3,00.5,0680.9,34.7
2016-04-26T00:29:00Z,0000380,01000600,0000.51,0000.09,0000.19,0000.84,-000.15,-000.08,-000.08,-000.02,-000.22,26.3,00.5,0680.8,34.7
2016-04-26T00:30:00Z,0000380,01000600,0000.07,0000.48,-000.54,0000.26,-000.14,-000.25,0000.10,-000.10,-000.07,26.3,00.5,0680.8,34.7
2016-04-26T00:31:00Z,0000380,01000600,0000.02,-000.14,-000.28,0000.09,-000.36,-000.12,-000.09,0000.25,0000.19,26.3,00.5,0680.7,34.7
2016-04-26T00:32:00Z,0000380,01000600,0000.29,-000.26,0000.00,0000.09,-000.14,-000.02,0000.07,-000.13,0000.02,26.3,00.4,0680.7,34.7
2016-04-26T00:33:00Z,0000380,01000600,-000.05,-000.16,-000.05,0000.08,0000.34,-000.36,0000.11,0000.14,0000.22,26.3,00.5,0680.6,34.7
2016-04-26T00:34:00Z,0000380,01000600,-000.20,-000.07,-000.46,-000.11,-000.20,0000.17,-000.09,-000.08,-000.27,26.3,00.5,0680.7,34.7
2016-04-26T00:35:00Z,0000380,01000600,0000.37,0000.12,0000.09,0000.78,-000.20,-000.05,0000.03,0000.01,-000.02,26.3,00.5,0680.7,34.7
2016-04-26T00:36:00Z,0000380,01000600,0000.16,-000.67,-000.15,-000.26,0000.29,-000.06,-000.07,-000.04,0000.18,26.3,00.5,0680.7,34.7
2016-04-26T00:37:00Z,0000380,01000600,-000.20,-000.04,-000.12,0000.00,0000.28,0000.34,-000.08,0000.11,-000.16,26.3,00.5,0680.6,34.7
2016-04-26T00:38:00Z,0000380,01000600,-000.25,-000.23,-000.15,-000.17,-000.08,-000.08,0000.08,-000.05,0000.04,26.3,00.5,0680.6,34.7
2016-04-26T00:39:00Z,0000380,01000600,-000.93,-000.46,-000.02,0000.50,-000.28,-000.33,0000.12,0000.01,0000.11,26.3,00.5,0680.5,34.7
2016-04-26T00:40:00Z,0000380,01000600,-000.27,-000.07,-000.09,0000.20,-000.15,0000.09,0000.06,0000.17,0000.11,26.3,00.6,0680.5,34.7
2016-04-26T00:41:00Z,0000380,01000600,-000.79,-000.12,0000.05,-000.19,0000.11,-000.06,-000.15,-000.11,-000.15,26.3,00.5,0680.4,34.7
2016-04-26T00:42:00Z,0000380,01000600,0000.25,0000.07,0000.05,0000.75,0000.37,-000.16,0000.22,0000.11,0000.14,26.3,00.6,0680.4,34.7
2016-04-26T00:43:00Z,0000380,01000600,-000.70,-000.05,-000.05,0000.40,0000.40,-000.14,0000.21,0000.10,-000.20,26.4,00.5,0680.3,34.7
2016-04-26T00:44:00Z,0000380,01000600,-000.14,0000.18,0000.29,0000.33,-000.31,-000.23,-000.22,0000.04,0000.11,26.3,00.5,0680.3,34.7
2016-04-26T00:45:00Z,0000380,01000600,-001.38,0000.02,-000.07,0000.12,0000.25,0000.00,0000.06,-000.14,0000.09,26.3,00.5,0680.2,34.7
2016-04-26T00:46:00Z,0000380,01000600,0000.04,-000.46,0000.00,0000.65,-000.02,-000.28,0000.10,0000.03,-000.14,26.3,00.6,0680.2,34.7
2016-04-26T00:47:00Z,0000380,01000600,-000.63,-000.11,-000.10,-000.17,0000.12,-000.25,0000.02,-000.03,0000.03,26.3,00.5,0680.1,34.7
2016-04-26T00:48:00Z,0000380,01000600,0000.13,-000.19,-000.03,0000.28,-000.11,0000.05,-000.14,-000.07,-000.15,26.3,00.5,0680.1,34.7
2016-04-26T00:49:00Z,0000380,01000600,0000.45,-000.32,-000.45,0000.59,-000.09,0000.11,0000.05,-000.01,-000.02,26.3,00.4,0680.0,34.7
2016-04-26T00:50:00Z,0000380,01000600,-000.25,-000.18,-000.09,0000.39,-000.23,-000.16,0000.12,0000.10,0000.28,26.3,00.4,0680.0,34.7
2016-04-26T00:51:00Z,0000380,01000600,-000.32,-000.11,0000.07,0000.48,-000.20,-000.19,0000.01,-000.09,-000.10,26.3,00.4,0679.9,34.7
2016-04-26T00:52:00Z,0000380,01000600,-000.14,-000.42,-000.05,0000.19,0000.03,-000.23,-000.16,-000.01,-000.07,26.3,00.4,0679.9,34.7
2016-04-26T00:53:00Z,0000380,01000600,0000.66,0000.26,0000.14,0000.00,-000.46,-000.08,0000.18,0000.21,0000.09,26.3,00.4,0679.9,34.7
2016-04-26T00:54:00Z,0000380,01000600,0000.38,-000.27,0000.06,0000.33,0000.08,-000.03,-000.01,-000.15,-000.49,26.3,00.3,0679.8,34.7
2016-04-26T00:55:00Z,0000380,01000600,-000.13,-000.58,-000.17,0000.48,-000.06,-000.05,-000.23,-000.02,0000.13,26.3,00.4,0679.7,34.7
2016-04-26T00:56:00Z,0000380,01000600,0000.66,0000.23,-000.24,0000.45,0000.25,-000.11,0000.31,0000.03,0000.23,26.3,00.4,0679.6,34.7
2016-04-26T00:57:00Z,0000380,41000600,,,,,,,,,,,,0679.8,34.7
2016-04-26T00:58:00Z,0000380,61000600,,,,,,,,,,26.3,00.6,0678.7,34.7
2016-04-26T00:59:00Z,0000380,21000600,,,,,,,,,,26.3,00.4,0678.6,34.7
2016-04-26T01:00:00Z,0000380,21000600,,,,,,,,,,26.3,00.4,0678.6,34.7
2016-04-26T01:01:00Z,0000380,21000600,,,,,,,,,,26.3,00.4,0678.5,34.7
2016-04-26T01:02:00Z,0000380,21000600,,,,,,,,,,26.3,00.4,0678.5,34.7
2016-04-26T01:03:00Z,0000380,61000600,,,,,,,,,,26.3,00.4,0678.5,34.7
2016-04-26T01:04:00Z,0000380,41000600,-001.15,0000.00,0000.03,-000.12,0000.02,-000.05,-000.13,-000.05,-000.13,26.4,00.3,0679.0,34.7
2016-04-26T01:05:00Z,0000380,01000600,-000.48,0000.71,0000.16,0000.03,-000.09,-000.08,0000.13,-000.02,0000.26,26.4,00.3,0678.9,34.7
2016-04-26T01:06:00Z,0000380,01000600,-000.07,0000.03,0000.19,0000.47,-000.05,0000.20,-000.01,0000.06,-000.15,26.4,00.4,0678.8,34.7
2016-04-26T01:07:00Z,0000380,01000600,0000.12,0000.25,-000.03,0000.20,0000.19,0000.11,0000.26,0000.33,0000.36,26.4,00.3,0678.8,34.7
2016-04-26T01:08:00Z,0000380,01000600,-000.21,0000.30,0000.60,0000.14,0000.11,0000.08,0000.08,-000.03,-000.11,26.4,00.4,0678.8,34.7
2016-04-26T01:09:00Z,0000380,01000600,-000.22,-000.45,-000.08,0000.06,0000.06,-000.03,-000.07,-000.04,-000.12,26.4,00.4,0678.7,34.7
2016-04-26T01:10:00Z,0000380,01000600,0000.03,0000.37,-000.05,-000.17,-000.12,-000.14,-000.16,0000.02,-000.00,26.4,00.4,0678.6,34.7
2016-04-26T01:11:00Z,0000380,01000600,-000.20,-000.46,-000.05,0000.53,0000.03,-000.20,0000.13,-000.19,-000.16,26.4,00.4,0678.5,34.7
2016-04-26T01:12:00Z,0000380,01000600,0000.81,-000.04,0000.19,-000.02,0000.16,0000.12,-000.02,0000.03,0000.07,26.4,00.4,0678.4,34.7
2016-04-26T01:13:00Z,0000380,01000600,-000.54,-000.28,0000.24,0000.14,0000.03,0000.27,0000.05,0000.16,0000.15,26.4,00.3,0678.3,34.7
2016-04-26T01:14:00Z,0000380,01000600,-000.47,-000.11,0000.26,0000.08,0000.20,0000.03,-000.01,0000.08,-000.08,26.4,00.4,0678.2,34.7
2016-04-26T01:15:00Z,0000380,01000600,0000.09,0000.25,-000.10,-000.44,0000.48,-000.16,-000.14,0000.10,0000.15,26.4,00.4,0678.0,34.8
2016-04-26T01:16:00Z,0000380,01000600,-000.40,0000.33,0000.34,-000.17,0000.39,0000.17,0000.37,-000.11,0000.31,26.4,00.4,0677.9,34.8
2016-04-26T01:17:00Z,0000380,01000600,-000.35,0000.49,0000.12,-000.06,0000.31,-000.06,-000.23,-000.05,-000.34,26.4,00.4,0677.8,34.8
2016-04-26T01:18:00Z,0000380,01000600,0000.17,0000.26,-000.15,-000.16,0000.05,0000.12,0000.19,0000.11,-000.03,26.4,00.4,0677.7,34.8
2016-04-26T01:19:00Z,0000380,01000600,-000.61,0000.11,0000.00,0000.06,-000.06,-000.08,0000.10,0000.11,-000.01,26.4,00.4,0677.6,34.8
2016-04-26T01:20:00Z,0000380,01000600,0000.52,-000.21,0000.24,-000.41,0000.03,-000.37,-000.25,-000.12,0000.14,26.5,00.4,0677.6,34.8
2016-04-26T01:21:00Z,0000380,01000600,-000.69,0000.25,0000.24,0000.14,0000.22,-000.25,0000.06,0000.09,0000.11,26.5,00.4,0677.5,34.8
2016-04-26T01:22:00Z,0000380,01000600,0000.02,-000.16,-000.08,0000.03,-000.19,-000.16,0000.22,0000.12,0000.04,26.5,00.4,0677.4,34.8
2016-04-26T01:23:00Z,0000380,01000600,-000.51,0000.19,0000.09,0000.09,-000.12,0000.05,-000.01,-000.13,-000.21,26.5,00.4,0677.4,34.8
2016-04-26T01:24:00Z,0000380,01000600,-000.42,-000.30,0000.40,0000.03,0000.17,-000.27,0000.08,0000.08,0000.24,26.4,00.4,0677.3,34.8
2016-04-26T01:25:00Z,0000380,01000600,0000.27,-000.21,-000.19,-000.08,-000.12,-000.27,0000.01,0000.01,0000.25,26.5,00.5,0677.3,34.8
2016-04-26T01:26:00Z,0000380,01000600,0000.15,0000.31,0000.12,0000.39,0000.31,-000.11,0000.11,0000.09,-000.10,26.5,00.5,0677.2,34.8
2016-04-26T01:27:00Z,0000380,01000600,0000.09,-000.35,0000.19,-000.17,0000.22,-000.31,-000.19,0000.20,0000.01,26.5,00.6,0677.2,34.8
2016-04-26T01:28:00Z,0000380,01000600,-000.09,0000.38,-000.15,-000.05,-000.02,-000.14,0000.07,-000.25,-000.14,26.5,00.6,0677.2,34.8
2016-04-26T01:29:00Z,0000380,01000600,0000.39,0000.91,-000.09,0000.50,-000.02,-000.27,0000.21,0000.21,0000.16,26.5,00.5,0677.1,34.8
2016-04-26T01:30:00Z,0000380,01000600,-000.31,-000.02,-000.05,0000.39,-000.25,-000.34,-000.21,-000.11,-000.21,26.5,00.5,0677.1,34.8
2016-04-26T01:31:00Z,0000380,01000600,-000.45,0000.16,0000.05,-000.31,0000.56,-000.17,0000.09,-000.11,-000.25,26.5,00.5,0677.1,34.8
2016-04-26T01:32:00Z,0000380,01000600,-000.20,0000.18,0000.28,-000.16,0000.11,-000.17,-000.05,0000.12,0000.23,26.5,00.4,0677.1,34.8
2016-04-26T01:33:00Z,0000380,01000600,0000.25,0000.19,-000.26,0000.08,-000.06,-000.02,-000.11,0000.00,0000.11,26.5,00.4,0677.1,34.8
2016-04-26T01:34:00Z,0000380,01000600,0000.39,-000.35,0000.11,0000.37,0000.23,-000.09,-000.08,-000.03,-000.17,26.5,00.4,0677.1,34.8
2016-04-26T01:35:00Z,0000380,01000600,-000.54,-000.16,0000.17,0000.06,0000.14,0000.11,0000.12,-000.07,-000.10,26.5,00.4,0677.1,34.8
2016-04-26T01:36:00Z,0000380,01000600,0000.45,-000.31,-000.12,-000.02,0000.12,-000.03,0000.12,0000.12,0000.04,26.5,00.4,0677.0,34.8
2016-04-26T01:37:00Z,0000380,01000600,-000.81,-000.48,0000.41,0000.16,0000.11,-000.13,0000.11,0000.08,0000.24,26.5,00.4,0677.0,34.8
2016-04-26T01:38:00Z,0000380,01000600,-000.22,0000.35,0000.22,0000.30,0000.30,0000.06,-000.09,-000.09,-000.28,26.5,00.5,0677.0,34.8
2016-04-26T01:39:00Z,0000380,01000600,0000.27,-000.48,0000.17,0000.17,-000.06,-000.38,0000.01,-000.05,0000.28,26.5,00.4,0677.0,34.8
2016-04-26T01:40:00Z,0000380,01000600,0000.41,0000.34,0000.18,-000.03,0000.58,0000.14,-000.09,0000.06,-000.05,26.5,00.4,0677.0,34.8
2016-04-26T01:41:00Z,0000380,01000600,0000.17,0000.52,0000.36,-000.22,0000.16,0000.00,0000.02,-000.07,-000.22,26.5,00.4,0677.1,34.8
2016-04-26T01:42:00Z,0000380,01000600,0000.37,-000.15,0000.02,0000.31,0000.31,-000.36,0000.17,0000.00,0000.15,26.5,00.4,0677.1,34.8
2016-04-26T01:43:00Z,0000380,01000600,-000.63,0000.60,0000.16,-000.48,0000.20,0000.33,-000.04,-000.05,-000.19,26.5,00.3,0677.1,34.8
2016-04-26T01:44:00Z,0000380,01000600,0000.90,-000.15,-000.26,0000.31,-000.16,-000.23,-000.24,-000.13,-000.27,26.5,00.3,0677.1,34.8
2016-04-26T01:45:00Z,0000380,01000600,-000.40,0000.58,-000.02,-000.30,0000.20,-000.06,0000.07,-000.21,0000.48,26.5,00.2,0677.1,34.7
2016-04-26T01:46:00Z,0000380,01000600,0000.61,-000.22,-000.08,0000.56,-000.02,-000.14,0000.08,0000.09,-000.28,26.5,00.2,0677.1,34.7
2016-04-26T01:47:00Z,0000380,01000600,-000.13,0000.11,-000.09,-000.16,0000.09,-000.25,-000.03,0000.12,-000.02,26.5,00.1,0677.1,34.7
2016-04-26T01:48:00Z,0000380,01000600,-000.54,-000.63,0000.19,0000.31,0000.23,-000.16,-000.16,-000.20,0000.06,26.5,00.2,0677.1,34.7
2016-04-26T01:49:00Z,0000380,01000600,0000.21,-000.21,-000.04,-000.27,-000.02,-000.41,0000.06,-000.02,-000.30,26.5,00.2,0677.1,34.7
2016-04-26T01:50:00Z,0000380,01000600,0000.14,0000.48,0000.09,-000.19,0000.26,0000.05,0000.02,0000.02,0000.08,26.5,00.1,0677.1,34.7
2016-04-26T01:51:00Z,0000380,01000600,0000.52,-000.47,0000.06,0000.19,0000.12,-000.14,0000.24,0000.00,0000.03,26.5,00.2,0677.1,34.7
2016-04-26T01:52:00Z,0000380,01000600,-000.81,0000.64,0000.12,0000.22,0000.42,-000.16,0000.02,0000.26,-000.06,26.5,00.2,0677.1,34.7
2016-04-26T01:53:00Z,0000380,01000600,0000.57,0000.30,0000.10,-000.06,0000.09,-000.09,-000.00,-000.08,0000.26,26.5,00.2,0677.1,34.7
2016-04-26T01:54:00Z,0000380,01000600,-000.10,0000.30,0000.26,-000.36,0000.02,-000.09,-000.09,0000.13,-000.18,26.5,00.2,0677.0,34.7
2016-04-26T01:55:00Z,0000380,01000600,-000.26,0000.05,-000.03,-000.11,0000.42,-000.36,0000.09,-000.05,0000.15,26.5,00.3,0677.0,34.7
2016-04-26T01:56:00Z,0000380,01000600,-000.14,-000.37,0000.10,0000.27,0000.16,-000.58,0000.02,0000.05,0000.16,26.5,00.3,0677.1,34.7
2016-04-26T01:57:00Z,0000380,41000600,,,,,,,,,,,,0677.2,34.7
2016-04-26T01:58:00Z,0000380,61000600,,,,,,,,,,26.3,00.4,0676.1,34.7
2016-04-26T01:59:00Z,0000380,21000600,,,,,,,,,,26.3,00.3,0676.1,34.7
2016-04-26T02:00:00Z,0000380,21000600,,,,,,,,,,26.3,00.3,0676.1,34.7
2016-04-26T02:01:00Z,0000380,21000600,,,,,,,,,,26.3,00.3,0676.1,34.7
2016-04-26T02:02:00Z,0000380,21000600,,,,,,,,,,26.3,00.3,0676.1,34.7
2016-04-26T02:03:00Z,0000380,61000600,,,,,,,,,,26.4,00.3,0676.1,34.7
2016-04-26T02:04:00Z,0000380,41000600,-000.16,-000.26,-000.19,0000.50,0000.09,0000.02,-000.12,-000.24,-000.15,26.4,00.3,0677.0,34.7
2016-04-26T02:05:00Z,0000380,01000600,0000.05,-000.30,0000.05,0000.53,0000.22,-000.28,-000.02,-000.03,0000.10,26.4,00.3,0677.1,34.7
2016-04-26T02:06:00Z,0000380,01000600,0000.13,-000.02,-000.10,0000.48,0000.08,0000.42,-000.07,0000.02,-000.03,26.4,00.3,0677.1,34.7
2016-04-26T02:07:00Z,0000380,01000600,0000.72,-000.33,-000.24,-000.47,-000.09,0000.42,-000.03,0000.01,-000.12,26.4,00.3,0677.0,34.7
2016-04-26T02:08:00Z,0000380,01000600,-000.05,-000.26,0000.12,-000.20,-000.08,-000.20,0000.13,-000.09,0000.30,26.4,00.2,0677.0,34.7
2016-04-26T02:09:00Z,0000380,01000600,0000.36,-000.40,0000.10,-000.19,0000.02,-000.08,-000.12,0000.32,-000.18,26.3,00.3,0677.0,34.7
2016-04-26T02:10:00Z,0000380,01000600,0000.15,0000.03,0000.20,-000.28,-000.05,-000.23,0000.00,-000.06,0000.11,26.4,00.3,0677.0,34.7
2016-04-26T02:11:00Z,0000380,01000600,0001.17,0000.35,0000.28,-000.30,0000.05,0000.25,-000.03,-000.14,0000.24,26.4,00.3,0677.0,34.7
2016-04-26T02:12:00Z,0000380,01000600,-000.17,-000.14,0000.00,0000.31,0000.20,0000.27,0000.04,0000.04,-000.17,26.4,00.3,0677.0,34.7
2016-04-26T02:13:00Z,0000380,01000600,0000.11,0000.40,0000.50,-000.16,-000.08,0000.02,-000.02,-000.14,0000.07,26.4,00.4,0677.0,34.7
2016-04-26T02:14:00Z,0000380,01000600,-000.84,0000.48,0000.09,-000.44,0000.12,-000.19,0000.03,0000.32,-000.23,26.4,00.2,0677.0,34.7
2016-04-26T02:15:00Z,0000380,01000600,0000.27,-000.17,-000.09,-000.22,-000.22,0000.27,0000.05,-000.09,0000.01,26.4,00.3,0677.0,34.7
2016-04-26T02:16:00Z,0000380,01000600,0000.40,-000.12,0000.13,-000.12,-000.20,0000.05,-000.09,-000.04,-000.01,26.4,00.3,0677.0,34.7
2016-04-26T02:17:00Z,0000380,01000600,0001.19,-000.32,-000.09,0000.17,-000.06,-000.05,-000.07,-000.07,0000.02,26.4,00.3,0677.1,34.7
2016-04-26T02:18:00Z,0000380,01000600,0000.66,-000.11,-000.12,-000.08,0000.23,0000.14,0000.15,-000.01,-000.03,26.4,00.3,0677.1,34.7
2016-04-26T02:19:00Z,0000380,01000600,-000.52,-000.12,-000.10,0000.02,-000.14,0000.17,0000.07,0000.11,0000.00,26.4,00.3,0677.0,34.7
2016-04-26T02:20:00Z,0000380,01000600,0000.71,-000.79,0000.20,0000.20,0000.02,0000.19,-000.08,0000.08,0000.23,26.4,00.3,0677.0,34.7
2016-04-26T02:21:00Z,0000380,01000600,0000.13,0000.20,0000.13,-000.52,-000.05,0000.27,-000.03,-000.10,-000.22,26.5,00.4,0677.0,34.7
2016-04-26T02:22:00Z,0000380,01000600,-000.65,-000.14,-000.04,0000.09,-000.09,0000.28,-000.06,0000.08,0000.28,26.5,00.4,0677.1,34.7
2016-04-26T02:23:00Z,0000380,01000600,0000.41,-000.44,-000.22,-000.22,0000.17,0000.00,0000.14,-000.28,-000.45,26.5,00.3,0677.1,34.7
2016-04-26T02:24:00Z,0000380,01000600,0000.38,-000.30,0000.07,-000.31,0000.26,0000.11,-000.20,0000.22,0000.25,26.5,00.3,0677.1,34.7
2016-04-26T02:25:00Z,0000380,01000600,0000.70,-000.14,0000.46,0000.62,-000.23,0000.20,0000.23,-000.09,-000.04,26.5,00.3,0677.1,34.7
2016-04-26T02:26:00Z,0000380,01000600,-000.07,-000.04,0000.09,0000.00,0000.08,0000.27,0000.04,0000.09,0000.06,26.5,00.3,0677.1,34.7
2016-04-26T02:27:00Z,0000380,01000600,-000.36,-000.96,0000.15,-000.47,0000.26,0000.42,-000.08,0000.01,-000.13,26.5,00.3,0677.1,34.7
2016-04-26T02:28:00Z,0000380,01000600,0000.35,0000.50,0000.32,-000.06,0000.17,0000.28,-000.13,-000.05,0000.20,26.5,00.3,0677.1,34.7
2016-04-26T02:29:00Z,0000380,01000600,0000.07,0000.36,-000.16,-000.22,0000.02,0000.02,0000.00,0000.07,-000.23,26.5,00.2,0677.1,34.7
2016-04-26T02:30:00Z,0000380,01000600,0000.49,0000.44,0000.05,-000.70,0000.51,0000.11,-000.16,-000.08,0000.26,26.5,00.2,0677.2,34.7
2016-04-26T02:31:00Z,0000380,01000600,0000.38,-000.07,0000.06,0000.30,-000.11,0000.11,0000.20,0000.05,-000.14,26.5,00.3,0677.2,34.7
2016-04-26T02:32:00Z,0000380,01000600,-000.19,0000.02,-000.02,0000.34,-000.14,-000.13,0000.04,0000.10,-000.27,26.5,00.3,0677.2,34.7
2016-04-26T02:33:00Z,0000380,01000600,0000.55,0000.50,0000.06,-000.34,0000.19,-000.27,0000.15,-000.06,0000.30,26.5,00.3,0677.2,34.7
2016-04-26T02:34:00Z,0000380,01000600,0000.91,0000.56,-000.19,-000.17,-000.25,0000.05,-000.29,0000.19,0000.20,26.5,00.2,0677.2,34.7
2016-04-26T02:35:00Z,0000380,01000600,0001.08,-000.11,0000.15,0000.12,-000.14,0000.00,0000.29,-000.19,-000.32,26.5,00.3,0677.3,34.7
2016-04-26T02:36:00Z,0000380,01000600,0000.08,-000.26,-000.07,0000.12,0000.09,0000.45,-000.12,0000.02,0000.12,26.5,00.2,0677.3,34.7
2016-04-26T02:37:00Z,0000380,01000600,0001.26,-000.42,-000.03,0000.09,0000.39,-000.11,-000.00,-000.12,-000.21,26.5,00.2,0677.3,34.7
2016-04-26T02:38:00Z,0000380,01000600,0000.79,0000.05,-000.09,-000.12,0000.06,0000.23,0000.08,0000.13,0000.35,26.5,00.2,0677.3,34.7
2016-04-26T02:39:00Z,0000380,01000600,0000.48,-000.18,0000.26,0000.23,0000.02,0000.23,0000.18,0000.08,-000.20,26.5,00.2,0677.3,34.7
2016-04-26T02:40:00Z,0000380,01000600,0000.72,0000.05,0000.16,0000.31,0000.03,-000.08,0000.02,-000.02,0000.12,26.5,00.2,0677.3,34.7
2016-04-26T02:41:00Z,0000380,01000600,0000.57,0000.74,0000.23,-000.02,-000.19,0000.36,-000.12,-000.07,-000.29,26.5,00.2,0677.3,34.7
2016-04-26T02:42:00Z,0000380,01000600,0000.72,0000.31,0000.00,-000.28,0000.00,-000.25,-000.09,0000.26,0000.18,26.5,00.2,0677.3,34.7
2016-04-26T02:43:00Z,0000380,01000600,0000.55,0000.22,0000.19,-000.09,0000.00,0000.58,0000.24,-000.00,0000.12,26.5,00.2,0677.3,34.7
2016-04-26T02:44:00Z,0000380,01000600,0000.18,0000.41,0000.37,0000.00,0000.34,0000.16,-000.08,0000.08,0000.02,26.5,00.2,0677.3,34.7
2016-04-26T02:45:00Z,0000380,01000600,0000.49,-000.33,0000.00,0000.12,0000.11,0000.16,0000.04,0000.13,0000.07,26.5,00.2,0677.3,34.7
2016-04-26T02:46:00Z,0000380,01000600,0000.24,0000.22,0000.30,0000.30,-000.31,0000.19,0000.05,-000.23,0000.27,26.5,00.3,0677.4,34.7
2016-04-26T02:47:00Z,0000380,01000600,0000.36,-000.02,0000.08,0000.20,0000.03,-000.17,0000.21,0000.28,-000.23,26.5,00.2,0677.4,34.7
2016-04-26T02:48:00Z,0000380,01000600,0000.31,0000.27,0000.55,-000.11,-000.05,-000.16,-000.12,-000.06,0000.07,26.5,00.3,0677.4,34.7
2016-04-26T02:49:00Z,0000380,01000600,0000.13,-000.28,0000.68,-000.30,0000.06,-000.05,0000.16,0000.03,-000.03,26.5,00.3,0677.4,34.7
2016-04-26T02:50:00Z,0000380,01000600,0000.68,-000.19,-000.12,-000.16,0000.20,0000.33,0000.16,0000.24,0000.19,26.5,00.3,0677.4,34.7
2016-04-26T02:51:00Z,0000380,01000600,-000.12,0000.35,0000.54,-000.33,0000.09,-000.12,0000.08,0000.25,0000.17,26.5,00.3,0677.4,34.7
2016-04-26T02:52:00Z,0000380,01000600,0000.57,-000.03,0000.02,-000.20,-000.17,0000.09,0000.03,-000.24,0000.14,26.5,00.3,0677.4,34.7
2016-04-26T02:53:00Z,0000380,01000600,0000.97,0000.54,0000.00,0000.02,0000.20,0000.28,-000.09,0000.17,0000.03,26.5,00.3,0677.4,34.7
2016-04-26T02:54:00Z,0000380,01000600,0000.24,0000.34,0000.23,0000.17,0000.16,0000.02,0000.11,-000.00,-000.05,26.5,00.3,0677.4,34.7
2016-04-26T02:55:00Z,0000380,01000600,0000.96,0000.19,-000.08,0000.03,-000.11,-000.02,0000.17,-000.05,-000.10,26.5,00.3,0677.4,34.7
2016-04-26T02:56:00Z,0000380,01000600,0000.51,0000.20,0000.02,0000.39,0000.42,-000.09,-000.03,0000.07,-000.05,26.5,00.2,0677.4,34.7
2016-04-26T02:57:00Z,0000380,41000600,,,,,,,,,,,,0677.4,34.7
2016-04-26T02:58:00Z,0000380,61000600,,,,,,,,,,26.3,00.1,0676.5,34.7
2016-04-26T02:59:00Z,0000380,21000600,,,,,,,,,,26.3,00.1,0676.5,34.7
2016-04-26T03:00:00Z,0000380,21000600,,,,,,,,,,26.3,00.1,0676.5,34.7
2016-04-26T03:01:00Z,0000380,21000600,,,,,,,,,,26.3,00.2,0676.5,34.7
2016-04-26T03:02:00Z,0000380,21000600,,,,,,,,,,26.3,00.2,0676.5,34.7
2016-04-26T03:03:00Z,0000380,61000600,,,,,,,,,,26.4,00.2,0676.5,34.7
2016-04-26T03:04:00Z,0000380,41000600,0000.07,0000.30,0000.01,-000.30,-000.02,0000.33,0000.10,0000.09,-000.09,26.5,00.2,0677.3,34.7
2016-04-26T03:05:00Z,0000380,01000600,-000.03,0000.72,0000.34,0000.30,0000.09,0000.06,0000.01,-000.11,0000.37,26.5,00.3,0677.5,34.7
2016-04-26T03:06:00Z,0000380,01000600,0000.57,-000.09,0000.28,0000.05,0000.19,0000.02,-000.00,0000.04,-000.05,26.5,00.3,0677.4,34.7
2016-04-26T03:07:00Z,0000380,01000600,0000.67,0000.20,0000.21,-000.36,0000.06,0000.20,0000.04,0000.11,-000.16,26.5,00.2,0677.4,34.7
2016-04-26T03:08:00Z,0000380,01000600,-000.98,0000.98,0000.23,-000.03,0000.39,0000.20,-000.05,-000.13,-000.29,26.5,00.2,0677.4,34.7
2016-04-26T03:09:00Z,0000380,01000600,0000.13,0000.38,-000.05,-000.02,0000.23,0000.25,0000.21,0000.22,0000.46,26.5,00.2,0677.5,34.7
2016-04-26T03:10:00Z,0000380,01000600,0000.17,0000.31,0000.02,0000.14,0000.36,0000.20,-000.25,-000.10,0000.02,26.5,00.2,0677.4,34.7
2016-04-26T03:11:00Z,0000380,01000600,-000.38,0000.00,-000.03,-000.27,0000.06,-000.03,0000.09,0000.08,0000.07,26.5,00.2,0677.4,34.7
2016-04-26T03:12:00Z,0000380,01000600,-000.13,-000.28,0000.18,-000.34,0000.75,-000.06,0000.04,-000.03,-000.24,26.5,00.2,0677.4,34.7